Location: Baili�vre
(50.0696°N, 4.2409°E)
Time: 05:35:49
(UTC+00:00)

Cosmos 1633 Rocket - Pass Details

Date: 08 August 2020
Orbit: 606 x 624 km, 82.5° (Epoch: 19 September)

Event Time Altitude Azimuth Distance (km) Brightness Sun altitude
Exits shadow 20:55:05 - 190° (S) 2,177 5.5 -13.9°
Reaches altitude 10° 20:55:32 10° 190° (S) 1,994 5.3 -13.9°
Maximum altitude 20:59:58 87° 279° (W) 633 3.1 -14.4°
Drops below altitude 10° 21:04:26 10° 9° (N) 2,006 6.2 -14.9°
Sets 21:06:40 0° 10° (N) 2,915 7.1 -15.1°
